Home > Weather > Emmendingen > Past weeks

Flag for Germany Weather for the Past 2 Weeks in Emmendingen, Baden-Württemberg, Germany

Now
46 °F

Clear.


Feels Like: 46 °F
Forecast: 32 / 63 °F
Wind: 1 mph from North

Location: Lahr - CAN-AFB

Current Time: Apr 30, 2016 at 12:38:15 AM

Latest Report: Apr 29, 2016 at 11:20 PM


Visibility: 10 mi

Pressure: 30.04 "Hg

Humidity: 66%

Dew Point: 36 °F

Location of EmmendingenLocation

Historic Weather in Emmendingen — Graph

°F

Emmendingen Temperature Yesterday

Maximum temperature yesterday: 61 °F (at 5:20 PM)
Minimum temperature yesterday: 36 °F (at 6:50 AM)
Average temperature yesterday: 53 °F

High & Low Weather Summary for the Past Weeks

 TemperatureHumidityPressure
High68 °F (Apr 21, 4:20 PM)100% (Apr 15, 8:50 AM)30.36 "Hg (Apr 15, 8:50 AM)
Low36 °F (Apr 29, 6:50 AM)31% (Apr 29, 5:50 PM)29.65 "Hg (Apr 26, 7:50 AM)
Average51 °F67%30.02 "Hg
* Reported Apr 15 7:20 AM — Apr 29 10:50 PM, Emmendingen, Weather by CustomWeather, © 2016

Note: Actual official high and low records may vary slightly from our data, if they occured in-between our weather recording intervals... More about our weather records

Advertising

Emmendingen Weather History for the Previous 24 Hours

Scroll right to see more
 ConditionsComfort  
Time TempWeatherWind HumidityBarometerVisibility
10:50 PM
Fri, Apr 29
48 °FClear.3 mph62%30.04 "Hg10 mi
9:50 PM50 °FClear.3 mph58%30.04 "Hg10 mi
9:20 PM52 °FSunny.5 mph54%30.04 "Hg10 mi
7:50 PM57 °FSunny.2 mph36%30.01 "Hg10 mi
7:20 PM57 °FSunny.3 mph41%30.01 "Hg10 mi
6:50 PM59 °FSunny.3 mph36%30.01 "Hg10 mi
6:20 PM61 °FSunny.2 mph31%30.01 "Hg10 mi
5:50 PM61 °FSunny.3 mph31%30.01 "Hg10 mi
5:20 PM61 °FPassing clouds.5 mph34%30.01 "HgN/A
4:50 PM59 °FPassing clouds.7 mph34%30.04 "HgN/A
4:20 PM59 °FPassing clouds.6 mph36%30.04 "HgN/A
3:50 PM59 °FPassing clouds.8 mph36%30.04 "HgN/A
3:20 PM57 °FPassing clouds.8 mph41%30.04 "HgN/A
2:50 PM57 °FPassing clouds.5 mph44%30.04 "HgN/A
2:20 PM57 °FPassing clouds.5 mph48%30.07 "HgN/A
1:50 PM57 °FPassing clouds.7 mph44%30.07 "HgN/A
1:20 PM55 °FPassing clouds.6 mph47%30.07 "HgN/A
12:50 PM54 °FPassing clouds.5 mph44%30.07 "HgN/A
12:20 PM52 °FPassing clouds.8 mph50%30.07 "HgN/A
11:50 AM54 °FPassing clouds.6 mph47%30.07 "HgN/A
11:20 AM52 °FPassing clouds.6 mph50%30.09 "HgN/A
10:50 AM52 °FPassing clouds.8 mph58%30.09 "HgN/A
9:50 AM48 °FPassing clouds.7 mph62%30.09 "HgN/A
9:20 AM46 °FPassing clouds.9 mph66%30.09 "HgN/A
8:50 AM45 °FPassing clouds.7 mph71%30.09 "HgN/A
8:20 AM41 °FSunny.5 mph76%30.09 "Hg10 mi
7:50 AM39 °FSunny.2 mph81%30.09 "Hg10 mi
6:50 AM36 °FClear.3 mph87%30.07 "Hg10 mi
Weather by CustomWeather, © 2016

See weather overviewHow to use our weather pages